Location: Unspecified
(0.0000°N, 0.0000°E)
Time: 04:40:20
(UTC+00:00)

N. Korean satellite - Pass Details

Date: 25 July 2017
Orbit: 460 x 514 km, 97.2° (Epoch: 20 November)

Event Time Altitude Azimuth Distance (km) Brightness Sun altitude
Rises 18:31:02 0° 168° (SSE) 2,526 9.9 -5.8°
Reaches altitude 10° 18:33:07 10° 167° (SSE) 1,637 8.9 -6.3°
Maximum altitude 18:36:37 82° 79° (E) 475 6.4 -7.1°
Drops below altitude 10° 18:40:04 10° 351° (N) 1,605 9.6 -7.9°
Sets 18:42:05 0° 351° (N) 2,472 10.6 -8.4°
